Torna al catalogo

STARLINK-34012

AttivoComunicazioniVLEO
NORAD 63926·PAYLOAD·🇺🇸 United States

Lanciato May 13, 2025 da Vandenberg Space Force Base

Loading…

Prossimi Passaggi (prossime 24 ore)

TLE

AggiornatoSource: CelesTrak SupGP

Epoca: Sep 15, 2026, 02:16 UTC

1 63926C 25098A   26258.09493056 -.00002453  00000+0 -85342-4 0  2588
2 63926  70.0001 155.1182 0003159 272.8923 256.0119 15.29579037    13

Traccia STARLINK-34012 in tempo reale con AllMySat

Download on the App Store